Miscellaneous Local Product
Issued by NWS Hastings, NE

Home | Current Version | Previous Version | Graphics & Text | Print | Product List | Glossary Off
Versions: 1 2 3 4 5 6 7 8 9 10 11 12 13 14 15 16 17 18 19 20 21 22 23 24 25 26 27 28 29 30 31 32 33 34 35 36 37 38 39 40 41 42 43 44 45 46 47 48 49 50

257
AXUS43 KGID 310802
MISGRI

GID CWA HOURLY WEATHER ROUNDUP
NATIONAL WEATHER SERVICE HASTINGS NE
300 AM CDT TUE MAY 31 2016

NOTE: "FAIR" INDICATES FEW OR NO CLOUDS BELOW 12,000 FEET WITH NO
SIGNIFICANT WEATHER AND/OR OBSTRUCTIONS TO VISIBILITY.

...SOUTH CENTRAL NEBRASKA...

CITY           SKY/WX    TMP DP  RH WIND       PRES   REMARKS
GRAND ISLAND   CLOUDY    61  58  90 W7        29.91R
HASTINGS       CLOUDY    60  58  92 W7        29.93R
KEARNEY        CLOUDY    59  55  88 NW5       29.94R
ORD            CLOUDY    61  55  81 N10       29.92R
YORK           LGT RAIN  63  59  88 E9        29.88F
AURORA         LGT RAIN  61  61  98 E9        29.85F
LEXINGTON      CLOUDY    57  55  90 W7        29.97R
HOLDREGE       CLOUDY    59  55  86 NW9G17    29.94R
HEBRON         LGT RAIN  61  59  92 E7        29.86F

...NEBRASKA PANHANDLE...

CITY           SKY/WX    TMP DP  RH WIND       PRES   REMARKS
CHADRON        CLOUDY    51  46  83 SW9       30.06F
ALLIANCE       LGT RAIN  51  47  86 N8        30.08R
SCOTTSBLUFF    LGT RAIN  52  43  71 NW6       30.12S
SIDNEY         MOCLDY    51  49  92 N18       30.07F

...WESTERN AND NORTH CENTRAL NEBRASKA...

CITY           SKY/WX    TMP DP  RH WIND       PRES   REMARKS
VALENTINE      CLOUDY    52  46  80 W7        29.97R
AINSWORTH      CLOUDY    55  48  77 NW13      29.98R
ONEILL         CLOUDY    60  56  84 NW7       29.92R
BROKEN BOW     PTCLDY    59  54  83 N16       29.94R
IMPERIAL       PTCLDY    57  52  83 N8        30.04R
NORTH PLATTE   CLOUDY    56  51  84 W3        29.99R
MCCOOK         CLOUDY    56  53  90 NW12      29.98R

...EASTERN NEBRASKA...

CITY           SKY/WX    TMP DP  RH WIND       PRES   REMARKS
NORFOLK        CLOUDY    60  58  92 CALM      29.87F
SO SIOUX CITY  CLOUDY    64  60  87 N5        29.87F
TEKAMAH        TSTM      65  57  75 W17       29.88R
COLUMBUS       CLOUDY    61  52  72 CALM      29.90R
ALBION         RAIN      59  57  91 NW8       29.89R
OMAHA EPPLEY   CLOUDY    70  61  73 S12       29.89R
OFFUTT AFB     PTCLDY    70  63  78 S7        29.89R
MILLARD        CLOUDY    69  62  79 S6        29.89R
LINCOLN        CLOUDY    68  56  65 NW7       29.90F
NEBRASKA CITY  MOCLDY    66  62  85 SW14      29.90S
BEATRICE       CLOUDY    67  58  72 NW14G22   29.91F
FALLS CITY     LGT RAIN  65  60  84 S7        29.91S

...NORTHERN KANSAS...

CITY           SKY/WX    TMP DP  RH WIND       PRES   REMARKS
GOODLAND       CLOUDY    50  48  93 NW6       29.97R
HILL CITY      CLOUDY    59  57  93 E3        29.92S
NORTON         SUNNY     57  52  82 CALM      29.91S
PHILLIPSBURG   CLEAR     59  59 100 CALM      29.91S
SMITH CENTER   CLEAR     55  55 100 S6        29.91R
BELOIT         MOCLDY    55  55 100 SE16G24   29.86F
HAYS           CLOUDY    61  52  72 E7        29.89S
RUSSELL        CLOUDY    60  58  92 SE22      29.84F
CONCORDIA      LGT RAIN  60  58  92 SE15      29.90F
SALINA         LGT RAIN  63  60  90 E3        29.96F
TOPEKA         CLOUDY    65  61  87 CALM      29.94S



USA.gov is the U.S. government's official web portal to all federal, state and local government web resources and services.